SDM2280 ULAA-ULLI

Flight info

Callsign SDM2280
Flight time N/A
Altitude 36000
Route OBIRA3J OBIRA M58 OSNAN DCT PRIBI DCT BEPOL BEPOL1W
Aircraft B738/M-SDE2E3FGHIRWXY/LB1

Departure

Time 2026-04-14 13:25
Airport Talagi Airport (ULAA)

Arrival

Time N/A
Airport Pulkovo Airport (ULLI)
Time Latitude Longitude Altitude Speed Heading
2026-04-14 13:14 64.59666 40.71389 39 ft 0 kts 186°
2026-04-14 13:17 64.59680 40.71392 66 ft 2 kts 187°
2026-04-14 13:17 64.59696 40.71398 31 ft 2 kts 191°
2026-04-14 13:17 64.59712 40.71410 37 ft 2 kts 232°
2026-04-14 13:17 64.59719 40.71444 38 ft 2 kts 269°
2026-04-14 13:18 64.59717 40.71480 38 ft 2 kts 280°
2026-04-14 13:18 64.59716 40.71489 38 ft 0 kts 278°
2026-04-14 13:19 64.59717 40.71463 37 ft 4 kts 275°
2026-04-14 13:20 64.59724 40.71335 39 ft 11 kts 277°
2026-04-14 13:20 64.59729 40.71217 39 ft 14 kts 276°
2026-04-14 13:20 64.59749 40.70943 39 ft 20 kts 277°
2026-04-14 13:21 64.59766 40.70602 39 ft 22 kts 277°
2026-04-14 13:21 64.59811 40.70311 39 ft 19 kts 311°
2026-04-14 13:21 64.59887 40.70132 39 ft 14 kts 315°
2026-04-14 13:21 64.59897 40.70002 39 ft 7 kts 276°
2026-04-14 13:22 64.59904 40.69862 39 ft 11 kts 276°
2026-04-14 13:22 64.59915 40.69635 39 ft 17 kts 276°
2026-04-14 13:22 64.59930 40.69317 39 ft 22 kts 276°
2026-04-14 13:22 64.59963 40.69041 39 ft 14 kts 343°
2026-04-14 13:23 64.60074 40.69056 39 ft 19 kts
2026-04-14 13:23 64.60146 40.69273 36 ft 19 kts 95°
2026-04-14 13:23 64.60142 40.69335 36 ft 0 kts 96°
2026-04-14 13:24 64.60043 40.71399 37 ft 137 kts 96°
2026-04-14 13:24 64.59897 40.74061 207 ft 186 kts 97°
2026-04-14 13:25 64.59744 40.77092 1167 ft 189 kts 95°
2026-04-14 13:25 64.59595 40.80095 2304 ft 182 kts 97°
2026-04-14 13:26 64.56280 40.84471 3690 ft 245 kts 201°
2026-04-14 13:26 64.54818 40.82360 4339 ft 250 kts 218°
2026-04-14 13:26 64.53474 40.79781 5086 ft 252 kts 220°
2026-04-14 13:26 64.52134 40.77077 5734 ft 264 kts 221°
2026-04-14 13:27 64.50710 40.74207 6377 ft 276 kts 220°
2026-04-14 13:27 64.49237 40.71269 7232 ft 281 kts 220°
2026-04-14 13:27 64.47760 40.68356 8095 ft 283 kts 220°
2026-04-14 13:27 64.46225 40.65356 8977 ft 287 kts 220°
2026-04-14 13:28 64.44704 40.62405 9811 ft 291 kts 219°
2026-04-14 13:28 64.43135 40.59380 10670 ft 294 kts 219°
2026-04-14 13:28 64.41525 40.56288 11156 ft 312 kts 219°
2026-04-14 13:28 64.39783 40.52959 11348 ft 337 kts 219°
2026-04-14 13:29 64.37932 40.49434 11812 ft 350 kts 219°
2026-04-14 13:29 64.36034 40.45829 12561 ft 355 kts 219°
2026-04-14 13:29 64.34119 40.42198 13370 ft 357 kts 219°
2026-04-14 13:29 64.32190 40.38547 14198 ft 360 kts 219°
2026-04-14 13:30 64.30232 40.34850 14828 ft 366 kts 219°
2026-04-14 13:30 64.28262 40.31143 15659 ft 365 kts 218°
2026-04-14 13:30 64.26281 40.27418 16324 ft 370 kts 218°
2026-04-14 13:30 64.24282 40.23659 17050 ft 372 kts 218°
2026-04-14 13:31 64.22270 40.19891 17763 ft 374 kts 219°
2026-04-14 13:31 64.20247 40.16090 18463 ft 377 kts 218°
2026-04-14 13:31 64.18200 40.12276 19103 ft 381 kts 217°
2026-04-14 13:31 64.16167 40.08485 19681 ft 383 kts 218°
2026-04-14 13:32 64.14087 40.04623 20278 ft 386 kts 217°
2026-04-14 13:32 64.11999 40.00745 20868 ft 388 kts 218°
2026-04-14 13:32 64.09887 39.96841 21441 ft 391 kts 217°
2026-04-14 13:32 64.07751 39.92893 21994 ft 395 kts 218°
2026-04-14 13:33 64.05608 39.88942 22566 ft 397 kts 218°
2026-04-14 13:33 64.03449 39.84968 23178 ft 399 kts 217°
2026-04-14 13:33 64.01283 39.80989 23749 ft 401 kts 217°
2026-04-14 13:33 63.99100 39.76988 24249 ft 404 kts 217°
2026-04-14 13:34 63.94680 39.68910 25112 ft 409 kts 217°
2026-04-14 13:34 63.92449 39.64846 25544 ft 412 kts 217°
2026-04-14 13:34 63.90235 39.60818 25965 ft 414 kts 217°
2026-04-14 13:35 63.87981 39.56728 26376 ft 417 kts 217°
2026-04-14 13:35 63.85694 39.52631 26782 ft 419 kts 215°
2026-04-14 13:35 63.83323 39.48770 27172 ft 420 kts 213°
2026-04-14 13:35 63.80892 39.45037 27569 ft 423 kts 212°
2026-04-14 13:36 63.78440 39.41342 28039 ft 422 kts 213°
2026-04-14 13:36 63.75999 39.37667 28555 ft 422 kts 213°
2026-04-14 13:36 63.73552 39.33963 28875 ft 425 kts 214°
2026-04-14 13:36 63.71091 39.30219 29155 ft 429 kts 214°
2026-04-14 13:37 63.68610 39.26436 29453 ft 432 kts 214°
2026-04-14 13:37 63.66111 39.22624 29814 ft 433 kts 214°
2026-04-14 13:37 63.63610 39.18810 30158 ft 435 kts 214°
2026-04-14 13:37 63.61097 39.14987 30503 ft 436 kts 214°
2026-04-14 13:38 63.58582 39.11170 30890 ft 435 kts 214°
2026-04-14 13:38 63.56083 39.07511 31251 ft 435 kts 214°
2026-04-14 13:38 63.53576 39.03720 31600 ft 434 kts 215°
2026-04-14 13:38 63.51090 38.99923 32086 ft 430 kts 214°
2026-04-14 13:39 63.48625 38.96169 32530 ft 428 kts 214°
2026-04-14 13:39 63.46156 38.92437 32821 ft 429 kts 214°
2026-04-14 13:39 63.43677 38.88716 33092 ft 430 kts 214°
2026-04-14 13:39 63.41190 38.84998 33433 ft 429 kts 214°
2026-04-14 13:40 63.38712 38.81301 33817 ft 427 kts 214°
2026-04-14 13:40 63.36243 38.77625 34165 ft 427 kts 214°
2026-04-14 13:40 63.33776 38.73954 34462 ft 427 kts 214°
2026-04-14 13:40 63.31305 38.70280 34717 ft 427 kts 214°
2026-04-14 13:41 63.28834 38.66612 34942 ft 427 kts 213°
2026-04-14 13:41 63.26354 38.62939 35174 ft 428 kts 213°
2026-04-14 13:41 63.23891 38.59299 35557 ft 424 kts 213°
2026-04-14 13:41 63.21437 38.55680 35802 ft 424 kts 213°
2026-04-14 13:42 63.18971 38.52052 35950 ft 426 kts 213°
2026-04-14 13:42 63.16525 38.48461 36116 ft 428 kts 213°
2026-04-14 13:42 63.14041 38.44823 36327 ft 428 kts 213°
2026-04-14 13:42 63.11554 38.41187 36519 ft 429 kts 213°
2026-04-14 13:43 63.09057 38.37543 36499 ft 432 kts 213°
2026-04-14 13:43 63.04024 38.30224 36502 ft 432 kts 213°
2026-04-14 13:44 62.99036 38.23001 36516 ft 425 kts 213°
2026-04-14 13:44 62.94122 38.15914 36503 ft 421 kts 213°
2026-04-14 13:45 62.89242 38.08905 36505 ft 417 kts 213°
2026-04-14 13:45 62.84356 38.01917 36518 ft 423 kts 213°
2026-04-14 13:46 62.79379 37.94827 36510 ft 428 kts 213°
2026-04-14 13:46 62.74404 37.87768 36509 ft 430 kts 212°
2026-04-14 13:47 62.69378 37.80667 36506 ft 430 kts 212°
2026-04-14 13:47 62.64352 37.73590 36499 ft 430 kts 212°
2026-04-14 13:48 62.59335 37.66544 36496 ft 429 kts 212°
2026-04-14 13:48 62.54332 37.59536 36493 ft 427 kts 212°
2026-04-14 13:49 62.49343 37.52577 36491 ft 426 kts 212°
2026-04-14 13:49 62.44370 37.45673 36490 ft 424 kts 212°
2026-04-14 13:50 62.39409 37.38812 36484 ft 423 kts 212°
2026-04-14 13:50 62.34459 37.31993 36482 ft 422 kts 212°
2026-04-14 13:51 62.29521 37.25219 36482 ft 421 kts 212°
2026-04-14 13:51 62.24586 37.18475 36480 ft 420 kts 212°
2026-04-14 13:52 62.19678 37.11796 36491 ft 420 kts 212°
2026-04-14 13:52 62.14735 37.05091 36473 ft 420 kts 212°
2026-04-14 13:53 62.09787 36.98402 36474 ft 421 kts 212°
2026-04-14 13:53 62.04835 36.91732 36468 ft 421 kts 211°
2026-04-14 13:54 61.99880 36.85086 36469 ft 421 kts 211°
2026-04-14 13:54 61.94910 36.78446 36474 ft 422 kts 211°
2026-04-14 13:55 61.89966 36.71864 36469 ft 422 kts 211°
2026-04-14 13:55 61.85147 36.64776 36462 ft 423 kts 221°
2026-04-14 13:56 61.81092 36.55702 36462 ft 424 kts 226°
2026-04-14 13:56 61.77088 36.46540 36462 ft 423 kts 226°
2026-04-14 13:57 61.73071 36.37460 36455 ft 423 kts 225°
2026-04-14 13:57 61.69059 36.28477 36462 ft 423 kts 225°
2026-04-14 13:58 61.65022 36.19488 36460 ft 422 kts 225°
2026-04-14 13:58 61.60979 36.10524 36459 ft 421 kts 225°
2026-04-14 13:59 61.56938 36.01601 36460 ft 421 kts 225°
2026-04-14 13:59 61.52905 35.92729 36459 ft 420 kts 225°
2026-04-14 14:00 61.48896 35.83947 36476 ft 419 kts 224°
2026-04-14 14:00 61.44859 35.75138 36467 ft 419 kts 224°
2026-04-14 14:01 61.40824 35.66368 36468 ft 418 kts 224°
2026-04-14 14:01 61.36786 35.57626 36467 ft 418 kts 224°
2026-04-14 14:02 61.32743 35.48910 36469 ft 418 kts 224°
2026-04-14 14:02 61.28693 35.40211 36469 ft 418 kts 224°
2026-04-14 14:03 61.24656 35.31585 36480 ft 419 kts 223°
2026-04-14 14:03 61.20587 35.22910 36472 ft 419 kts 223°
2026-04-14 14:04 61.16516 35.14266 36468 ft 419 kts 223°
2026-04-14 14:04 61.12433 35.05633 36464 ft 419 kts 223°
2026-04-14 14:05 61.08343 34.97020 36464 ft 419 kts 223°
2026-04-14 14:05 61.04250 34.88436 36477 ft 419 kts 223°
2026-04-14 14:06 61.00150 34.79869 36467 ft 420 kts 223°
2026-04-14 14:06 60.96067 34.71371 36457 ft 420 kts 223°
2026-04-14 14:07 60.91958 34.62852 36462 ft 419 kts 223°
2026-04-14 14:07 60.87843 34.54355 36451 ft 419 kts 223°
2026-04-14 14:08 60.83728 34.45889 36474 ft 419 kts 222°
2026-04-14 14:08 60.80298 34.38858 36459 ft 419 kts 222°
2026-04-14 14:09 60.76169 34.30425 36445 ft 419 kts 222°
2026-04-14 14:09 60.72038 34.22019 36445 ft 419 kts 222°
2026-04-14 14:10 60.67905 34.13640 36438 ft 419 kts 222°
2026-04-14 14:10 60.63791 34.05333 36437 ft 418 kts 222°
2026-04-14 14:11 60.59647 33.96999 36442 ft 419 kts 221°
2026-04-14 14:11 60.55493 33.88675 36435 ft 419 kts 221°
2026-04-14 14:12 60.51333 33.80371 36444 ft 419 kts 221°
2026-04-14 14:12 60.49245 33.76215 36194 ft 423 kts 221°
2026-04-14 14:12 60.47159 33.72070 35884 ft 417 kts 221°
2026-04-14 14:12 60.45094 33.67972 35455 ft 413 kts 221°
2026-04-14 14:13 60.43079 33.63981 35061 ft 408 kts 220°
2026-04-14 14:13 60.41061 33.59993 34665 ft 403 kts 220°
2026-04-14 14:13 60.39065 33.56055 34237 ft 399 kts 220°
2026-04-14 14:13 60.37084 33.52157 33786 ft 395 kts 220°
2026-04-14 14:14 60.35130 33.48316 33391 ft 389 kts 220°
2026-04-14 14:14 60.33196 33.44524 32992 ft 385 kts 220°
2026-04-14 14:14 60.31286 33.40785 32590 ft 380 kts 219°
2026-04-14 14:14 60.29398 33.37096 32206 ft 376 kts 219°
2026-04-14 14:15 60.27529 33.33450 31824 ft 372 kts 219°
2026-04-14 14:15 60.25679 33.29846 31444 ft 369 kts 219°
2026-04-14 14:15 60.23840 33.26269 31073 ft 365 kts 219°
2026-04-14 14:15 60.22015 33.22725 30690 ft 362 kts 219°
2026-04-14 14:16 60.20282 33.19049 30279 ft 364 kts 227°
2026-04-14 14:16 60.18907 33.14851 29937 ft 365 kts 234°
2026-04-14 14:16 60.17802 33.10259 29548 ft 368 kts 242°
2026-04-14 14:17 60.16355 33.00416 28760 ft 365 kts 247°
2026-04-14 14:17 60.15687 32.95541 28391 ft 361 kts 247°
2026-04-14 14:17 60.15016 32.90697 28030 ft 357 kts 247°
2026-04-14 14:17 60.14345 32.85916 27660 ft 354 kts 246°
2026-04-14 14:18 60.13672 32.81182 27278 ft 351 kts 246°
2026-04-14 14:18 60.12999 32.76488 26921 ft 348 kts 246°
2026-04-14 14:18 60.12328 32.71843 26571 ft 346 kts 246°
2026-04-14 14:18 60.11659 32.67226 26207 ft 344 kts 246°
2026-04-14 14:19 60.10991 32.62638 25856 ft 342 kts 246°
2026-04-14 14:19 60.10324 32.58069 25520 ft 341 kts 246°
2026-04-14 14:19 60.09655 32.53504 25171 ft 342 kts 246°
2026-04-14 14:19 60.08977 32.48899 24831 ft 349 kts 246°
2026-04-14 14:20 60.08279 32.44171 24474 ft 358 kts 247°
2026-04-14 14:20 60.07584 32.39440 24076 ft 358 kts 247°
2026-04-14 14:20 60.06883 32.34679 23661 ft 355 kts 247°
2026-04-14 14:20 60.06192 32.29947 23285 ft 354 kts 249°
2026-04-14 14:21 60.05828 32.25040 22893 ft 359 kts 260°
2026-04-14 14:21 60.05730 32.20053 22536 ft 357 kts 262°
2026-04-14 14:21 60.05670 32.15104 22181 ft 354 kts 262°
2026-04-14 14:21 60.05606 32.10199 21818 ft 352 kts 261°
2026-04-14 14:22 60.05528 32.05321 21458 ft 349 kts 261°
2026-04-14 14:22 60.05437 32.00491 21113 ft 346 kts 261°
2026-04-14 14:22 60.05336 31.95691 20767 ft 343 kts 261°
2026-04-14 14:22 60.05228 31.90930 20427 ft 341 kts 261°
2026-04-14 14:23 60.05116 31.86196 20091 ft 339 kts 261°
2026-04-14 14:23 60.05001 31.81486 19760 ft 337 kts 261°
2026-04-14 14:23 60.04885 31.76813 19430 ft 335 kts 261°
2026-04-14 14:23 60.04768 31.72158 19100 ft 334 kts 261°
2026-04-14 14:24 60.04651 31.67598 18775 ft 332 kts 261°
2026-04-14 14:24 60.04531 31.62988 18401 ft 330 kts 261°
2026-04-14 14:24 60.04410 31.58401 18052 ft 328 kts 261°
2026-04-14 14:24 60.04289 31.53857 17721 ft 326 kts 262°
2026-04-14 14:25 60.04168 31.49347 17384 ft 324 kts 262°
2026-04-14 14:25 60.04046 31.44864 17054 ft 322 kts 262°
2026-04-14 14:25 60.03923 31.40415 16724 ft 320 kts 262°
2026-04-14 14:25 60.03799 31.35978 16414 ft 318 kts 262°
2026-04-14 14:26 60.03591 31.31566 16062 ft 319 kts 259°
2026-04-14 14:26 60.03315 31.27138 15699 ft 323 kts 259°
2026-04-14 14:26 60.03018 31.22646 15329 ft 328 kts 259°
2026-04-14 14:26 60.02716 31.18100 14963 ft 331 kts 259°
2026-04-14 14:27 60.02414 31.13520 14584 ft 334 kts 260°
2026-04-14 14:27 60.02113 31.08911 14185 ft 333 kts 260°
2026-04-14 14:27 60.01816 31.04325 13758 ft 333 kts 260°
2026-04-14 14:27 60.01523 30.99804 13361 ft 331 kts 261°
2026-04-14 14:28 60.01228 30.95256 12990 ft 329 kts 261°
2026-04-14 14:28 60.00933 30.90737 12608 ft 327 kts 261°
2026-04-14 14:28 60.00639 30.86247 12231 ft 325 kts 261°
2026-04-14 14:28 60.00346 30.81787 11870 ft 323 kts 261°
2026-04-14 14:29 60.00052 30.77348 11514 ft 321 kts 261°
2026-04-14 14:29 59.99758 30.72922 11136 ft 320 kts 261°
2026-04-14 14:29 59.99463 30.68519 10766 ft 319 kts 261°
2026-04-14 14:29 59.99169 30.64142 10416 ft 317 kts 261°
2026-04-14 14:30 59.98883 30.59893 10368 ft 298 kts 261°
2026-04-14 14:30 59.98614 30.55894 9950 ft 290 kts 261°
2026-04-14 14:30 59.98340 30.51882 9450 ft 289 kts 261°
2026-04-14 14:30 59.98069 30.47921 9044 ft 285 kts 261°
2026-04-14 14:31 59.97804 30.44048 8705 ft 278 kts 261°
2026-04-14 14:31 59.97544 30.40297 8382 ft 274 kts 261°
2026-04-14 14:31 59.97280 30.36489 8073 ft 273 kts 261°
2026-04-14 14:31 59.97017 30.32733 7756 ft 272 kts 261°
2026-04-14 14:32 59.96758 30.29042 7465 ft 272 kts 262°
2026-04-14 14:32 59.96495 30.25300 7153 ft 272 kts 262°
2026-04-14 14:32 59.96230 30.21551 6812 ft 273 kts 262°
2026-04-14 14:32 59.95964 30.17795 6470 ft 273 kts 262°
2026-04-14 14:33 59.95699 30.14053 6150 ft 272 kts 261°
2026-04-14 14:33 59.95431 30.10315 5828 ft 271 kts 261°
2026-04-14 14:33 59.95165 30.06593 5514 ft 270 kts 261°
2026-04-14 14:33 59.94899 30.02890 5201 ft 269 kts 261°
2026-04-14 14:34 59.94367 29.95545 4580 ft 266 kts 261°
2026-04-14 14:34 59.93958 29.92032 4154 ft 264 kts 243°
2026-04-14 14:34 59.92761 29.89329 3645 ft 259 kts 209°
2026-04-14 14:35 59.91139 29.88224 3549 ft 236 kts 183°
2026-04-14 14:35 59.89586 29.88410 3394 ft 214 kts 162°
2026-04-14 14:35 59.88259 29.89429 3286 ft 197 kts 153°
2026-04-14 14:35 59.87050 29.90565 2965 ft 194 kts 152°
2026-04-14 14:36 59.85848 29.91710 2717 ft 190 kts 152°
2026-04-14 14:36 59.84693 29.92878 2547 ft 181 kts 141°
2026-04-14 14:36 59.84068 29.94838 2438 ft 165 kts 101°
2026-04-14 14:36 59.83719 29.97014 2312 ft 165 kts 110°
2026-04-14 14:37 59.83356 29.99135 2165 ft 159 kts 103°
2026-04-14 14:37 59.83052 30.01257 2062 ft 161 kts 104°
2026-04-14 14:37 59.82741 30.03367 2004 ft 157 kts 104°
2026-04-14 14:37 59.82429 30.05455 1785 ft 155 kts 104°
2026-04-14 14:38 59.82120 30.07521 1583 ft 156 kts 104°
2026-04-14 14:38 59.81810 30.09594 1368 ft 157 kts 104°
2026-04-14 14:38 59.81511 30.11600 1196 ft 148 kts 103°
2026-04-14 14:38 59.81220 30.13539 965 ft 143 kts 105°
2026-04-14 14:39 59.80931 30.15480 803 ft 150 kts 104°
2026-04-14 14:39 59.80622 30.17472 592 ft 151 kts 106°
2026-04-14 14:39 59.80330 30.19485 362 ft 149 kts 105°
2026-04-14 14:39 59.80049 30.21452 162 ft 147 kts 106°
2026-04-14 14:40 59.79757 30.23347 84 ft 135 kts 105°
2026-04-14 14:40 59.79520 30.25003 2120 ft 189 kts 103°
2026-04-14 14:40 59.79402 30.25839 1807 ft 195 kts 101°
2026-04-14 14:41 59.79351 30.26229 1650 ft 199 kts 102°